Weather History for Paris / Charles De Gaulle, France

Change the Weather History Date:

Friday, February 15, 2013

  Actual Average Record
Temperature  
Mean Temperature 44 °F -  
Max Temperature 50 °F 48 °F 60 °F (1998)
Min Temperature 39 °F 36 °F 24 °F (2003)
Degree Days  
Heating Degree Days 20    
Moisture  
Dew Point 38 °F    
Average Humidity 84    
Maximum Humidity 100    
Minimum Humidity 62    
Precipitation  
Precipitation 0.00 in - - ()
Sea Level Pressure  
Sea Level Pressure 30.11 in    
Wind  
Wind Speed 6 mph ()    
Max Wind Speed 13 mph    
Max Gust Speed -    
Visibility 4.8 miles    
Events Fog    
Averages and records for this station are not official NWS values.
T = Trace of Precipitation, MM = Missing Value Source: Averaged Metar Reports

Daily Weather History Graph

Daily Weather History Graph

Search for Another Location

Airport:

Trip Planner

Search our weather history database for the weather conditions in past years. The results will help you decide how hot, cold, wet, or windy it might be!

Date:

Astronomy

Feb. 15, 2013 Rise Set
Actual Time 7:58 AM CET 6:10 PM CET
Civil Twilight 7:25 AM CET 6:43 PM CET
Nautical Twilight 6:48 AM CET 7:20 PM CET
Astronomical Twilight 6:11 AM CET 7:56 PM CET
Moon 9:52 AM CET (2/15) No Moon Set
Length of Visible Light 11h 17m
Length of Day
10h 12m
Waxing Crescent, 28% of the Moon is Illuminated
Feb 15
Waxing Crescent
Feb 17
First Quarter
Feb 25
Full
Mar 4
Last Quarter
Mar 11
New

Hourly Weather History & Observations

Time (CET) Temp. Windchill Dew Point Humidity Pressure Visibility Wind Dir Wind Speed Gust Speed Precip Events Conditions
12:00 AM 39.2 °F 33.0 °F 39.2 °F 100% 29.98 in 5.6 mi WNW 9.2 mph - N/A   Mostly Cloudy
12:30 AM 39.2 °F 34.2 °F 39.2 °F 100% 29.98 in 4.3 mi WNW 6.9 mph - N/A   Mostly Cloudy
1:00 AM 39.2 °F 35.9 °F 39.2 °F 100% 29.98 in 3.7 mi WNW 4.6 mph - N/A   Unknown
1:30 AM 39.2 °F 35.9 °F 39.2 °F 100% 30.01 in 3.1 mi WNW 4.6 mph - N/A   Mist
2:00 AM 39.2 °F 35.0 °F 37.4 °F 93% 30.01 in 1.9 mi NW 5.8 mph - N/A   Mist
2:30 AM 39.2 °F 35.0 °F 37.4 °F 93% 30.01 in 2.5 mi WNW 5.8 mph - N/A   Mist
3:00 AM 39.2 °F 35.9 °F 39.2 °F 100% 30.01 in 3.7 mi West 4.6 mph - N/A   Unknown
3:30 AM 39.2 °F 33.6 °F 39.2 °F 100% 30.01 in 3.7 mi West 8.1 mph - N/A   Scattered Clouds
4:00 AM 39.2 °F 34.2 °F 37.4 °F 93% 30.01 in 3.7 mi West 6.9 mph - N/A Fog Patches of Fog
4:30 AM 39.2 °F 35.0 °F 39.2 °F 100% 30.01 in 3.7 mi West 5.8 mph - N/A   Mostly Cloudy
5:00 AM 39.2 °F - 39.2 °F 100% 30.01 in 3.7 mi Variable 2.3 mph - N/A   Mostly Cloudy
5:30 AM 41.0 °F 37.1 °F 39.2 °F 93% 30.04 in 3.7 mi West 5.8 mph - N/A   Mostly Cloudy
6:00 AM 41.0 °F 37.1 °F 39.2 °F 93% 30.04 in 3.7 mi West 5.8 mph - N/A   Mostly Cloudy
6:30 AM 41.0 °F 38.0 °F 39.2 °F 93% 30.04 in 3.7 mi WSW 4.6 mph - N/A   Mostly Cloudy
7:00 AM 41.0 °F 37.1 °F 39.2 °F 93% 30.06 in 3.7 mi West 5.8 mph - N/A   Mostly Cloudy
7:30 AM 41.0 °F 37.1 °F 39.2 °F 93% 30.06 in 3.1 mi West 5.8 mph - N/A   Mostly Cloudy
8:00 AM 41.0 °F 38.0 °F 39.2 °F 93% 30.06 in 3.1 mi West 4.6 mph - N/A   Mostly Cloudy
8:30 AM 41.0 °F - 39.2 °F 93% 30.09 in 3.1 mi Variable 2.3 mph - N/A   Mostly Cloudy
9:00 AM 41.0 °F 38.0 °F 39.2 °F 93% 30.09 in 3.7 mi WNW 4.6 mph - N/A   Mostly Cloudy
9:30 AM 41.0 °F 37.1 °F 39.2 °F 93% 30.09 in 3.7 mi West 5.8 mph - N/A   Mostly Cloudy
10:00 AM 42.8 °F 40.1 °F 41.0 °F 93% 30.09 in 5.0 mi West 4.6 mph - N/A   Mostly Cloudy
10:30 AM 42.8 °F 39.3 °F 41.0 °F 93% 30.12 in 5.0 mi West 5.8 mph - N/A   Mostly Cloudy
11:00 AM 44.6 °F 39.7 °F 42.8 °F 93% 30.12 in 6.2 mi WNW 9.2 mph - N/A   Mostly Cloudy
11:30 AM 44.6 °F 38.4 °F 41.0 °F 87% 30.12 in 6.2 mi WNW 12.7 mph - N/A   Mostly Cloudy
12:00 PM 44.6 °F 40.2 °F 41.0 °F 87% 30.15 in 6.2 mi WNW 8.1 mph - N/A   Mostly Cloudy
12:30 PM 44.6 °F 40.2 °F 41.0 °F 87% 30.15 in 6.2 mi West 8.1 mph - N/A   Mostly Cloudy
1:00 PM 44.6 °F 40.2 °F 41.0 °F 87% 30.15 in 6.2 mi West 8.1 mph - N/A   Scattered Clouds
1:30 PM 46.4 °F 41.9 °F 41.0 °F 81% 30.15 in 6.2 mi WNW 9.2 mph - N/A   Scattered Clouds
2:00 PM 48.2 °F - 41.0 °F 76% 30.15 in 6.2 mi WNW 10.4 mph - N/A   Mostly Cloudy
2:30 PM 48.2 °F - 39.2 °F 71% 30.15 in 6.2 mi West 10.4 mph - N/A   Mostly Cloudy
3:00 PM 50.0 °F - 39.2 °F 66% 30.15 in 6.2 mi WNW 9.2 mph - N/A   Scattered Clouds
3:30 PM 50.0 °F - 39.2 °F 66% 30.15 in 6.2 mi West 6.9 mph - N/A   Scattered Clouds
4:00 PM 50.0 °F - 37.4 °F 62% 30.15 in 6.2 mi West 6.9 mph - N/A   Scattered Clouds
4:30 PM 48.2 °F - 37.4 °F 66% 30.15 in 6.2 mi NNW 5.8 mph - N/A   Scattered Clouds
5:00 PM 48.2 °F - 35.6 °F 62% 30.15 in 6.2 mi NW 6.9 mph - N/A   Mostly Cloudy
5:30 PM 48.2 °F - 35.6 °F 62% 30.15 in 6.2 mi North 8.1 mph - N/A   Mostly Cloudy
6:00 PM 46.4 °F 44.3 °F 35.6 °F 66% 30.15 in 6.2 mi NNW 4.6 mph - N/A   Mostly Cloudy
6:30 PM 46.4 °F - 35.6 °F 66% 30.18 in 6.2 mi NNW 2.3 mph - N/A   Mostly Cloudy
7:00 PM 44.6 °F - 35.6 °F 71% 30.18 in 6.2 mi West 2.3 mph - N/A   Mostly Cloudy
7:30 PM 44.6 °F 42.2 °F 35.6 °F 71% 30.18 in - West 4.6 mph - N/A   Clear
8:00 PM 44.6 °F 43.1 °F 35.6 °F 71% 30.18 in - WNW 3.5 mph - N/A   Clear
8:30 PM 44.6 °F 42.2 °F 35.6 °F 71% 30.21 in - West 4.6 mph - N/A   Clear
9:00 PM 42.8 °F 41.1 °F 35.6 °F 76% 30.21 in - NW 3.5 mph - N/A   Clear
9:30 PM 42.8 °F 41.1 °F 35.6 °F 76% 30.21 in - NW 3.5 mph - N/A   Clear
10:00 PM 41.0 °F 37.1 °F 33.8 °F 76% 30.21 in - NW 5.8 mph - N/A   Clear
10:30 PM 39.2 °F 35.9 °F 33.8 °F 81% 30.21 in - Variable 4.6 mph - N/A   Clear
11:00 PM 41.0 °F 39.0 °F 33.8 °F 76% 30.21 in 6.2 mi North 3.5 mph - N/A   Partly Cloudy
11:30 PM 39.2 °F 37.0 °F 33.8 °F 81% 30.21 in - Variable 3.5 mph - N/A   Clear